Flag for Canada Weather past 2 weeks in Rainy River, Ontario, Canada

Now
74 °F

Partly sunny.


Feels Like: 77 °F
Forecast: 60 / 72 °F
Wind: 23 mph from West

Location: Baudette International Airport

Current Time: Jul 29, 2015 at 6:16:03 PM

Latest Report: Jul 29, 2015 at 5:53 PM


Visibility: 10 mi

Pressure: 29.74 "Hg

Humidity: 48%

Dew point: 53 °F

Location of Rainy RiverLocation

Historic Weather in Rainy River — Graph

°F

Rainy River temperature yesterday

Maximum temperature yesterday: 80 °F (at 3:53 PM)
Minimum temperature yesterday: 66 °F (at 11:53 PM)
Average temperature yesterday: 73 °F

Past Weeks' High & Low Weather Summary

 TemperatureHumidityPressure
High89 °F (Jul 26, 3:53 PM)97% (Jul 16, 4:53 AM)29.97 "Hg (Jul 16, 4:53 AM)
Low50 °F (Jul 22, 5:53 AM)41% (Jul 19, 3:53 PM)29.49 "Hg (Jul 29, 3:53 AM)
Average70 °F74%29.79 "Hg
* Reported Jul 14 4:53 PM — Jul 29 4:53 PM, Rainy River, Weather by CustomWeather, © 2015

Note: Actual official high and low records may vary slightly from our data, if they occured in-between our weather recording intervals... More about our weather records

Advertising

Rainy River weather history for previous 24 hours

 ConditionsComfort  
Time TempWeatherWind HumidityBarometerVisibility
4:53 PM
Wed, Jul 29
75 °FPartly sunny.20 mph50%29.72 "Hg10 mi
3:53 PM73 °FOvercast.22 mph53%29.70 "Hg10 mi
2:53 PM71 °FMostly cloudy.17 mph59%29.68 "Hg10 mi
1:53 PM67 °FOvercast.17 mph68%29.67 "Hg10 mi
1:00 PM67 °FMostly cloudy.21 mph73%29.65 "Hg10 mi
11:53 AM64 °FMore clouds than sun.16 mph78%29.62 "Hg10 mi
10:53 AM62 °FFog.15 mph86%29.59 "Hg5 mi
9:53 AM62 °FOvercast.20 mph83%29.57 "Hg10 mi
8:53 AM60 °FFog.14 mph90%29.55 "Hg6 mi
7:53 AM60 °FOvercast.13 mph86%29.54 "Hg10 mi
6:53 AM60 °FMostly cloudy.15 mph86%29.52 "Hg10 mi
5:53 AM60 °FMostly cloudy.17 mph86%29.51 "Hg8 mi
4:53 AM61 °FOvercast.22 mph78%29.49 "Hg10 mi
3:53 AM62 °FOvercast.24 mph73%29.49 "Hg10 mi
2:53 AM63 °FOvercast.26 mph68%29.49 "Hg10 mi
1:53 AM65 °FOvercast.26 mph56%29.52 "Hg10 mi
12:53 AM68 °FOvercast.21 mph51%29.52 "Hg10 mi
11:53 PM
Tue, Jul 28
66 °FPassing clouds.18 mph56%29.56 "Hg10 mi
10:53 PM68 °FPassing clouds.18 mph55%29.59 "Hg10 mi
9:53 PM69 °FPartly sunny.15 mph57%29.61 "Hg10 mi
8:53 PM70 °FPartly sunny.14 mph57%29.63 "Hg10 mi
7:53 PM73 °FPartly sunny.12 mph51%29.64 "Hg10 mi
6:53 PM74 °FPassing clouds.23 mph52%29.64 "Hg10 mi
Weather by CustomWeather, © 2015

See weather overviewHow to use our weather pages